Time,TemperatureF,DewpointF,PressureIn,WindDirection,WindDirectionDegrees,WindSpeedMPH,WindSpeedGustMPH,Humidity,HourlyPrecipIn,Conditions,Clouds,dailyrainin,SoftwareType,DateUTC
2013-02-19 00:00:00,41.8,33.4,29.40,SSW,203,2.9,4.0,72,0.00,,,0.00,WUHU216HW,2013-02-19 05:00:00,
2013-02-19 00:05:00,41.8,33.4,29.39,South,180,3.1,3.1,72,0.00,,,0.00,WUHU216HW,2013-02-19 05:05:00,
2013-02-19 00:10:00,41.8,33.8,29.39,ESE,113,2.9,4.0,73,0.00,,,0.00,WUHU216HW,2013-02-19 05:10:00,
2013-02-19 00:15:00,41.8,33.8,29.38,SSE,158,6.5,6.5,73,0.00,,,0.00,WUHU216HW,2013-02-19 05:15:00,
2013-02-19 00:20:00,41.9,33.9,29.38,South,180,3.1,6.5,73,0.00,,,0.00,WUHU216HW,2013-02-19 05:20:00,
2013-02-19 00:25:00,41.9,33.9,29.38,SE,135,3.1,6.5,73,0.00,,,0.00,WUHU216HW,2013-02-19 05:25:00,
2013-02-19 00:30:00,42.1,34.1,29.38,SE,135,3.4,4.5,73,0.00,,,0.00,WUHU216HW,2013-02-19 05:30:00,
2013-02-19 00:35:00,42.3,34.3,29.37,South,180,2.7,4.7,73,0.00,,,0.00,WUHU216HW,2013-02-19 05:35:00,
2013-02-19 00:40:00,42.3,34.3,29.37,SE,135,1.6,4.9,73,0.00,,,0.00,WUHU216HW,2013-02-19 05:40:00,
2013-02-19 00:45:00,42.3,34.6,29.37,SE,135,3.4,4.9,74,0.00,,,0.00,WUHU216HW,2013-02-19 05:45:00,
2013-02-19 00:50:00,42.3,34.6,29.37,SSE,158,4.3,4.7,74,0.00,,,0.00,WUHU216HW,2013-02-19 05:50:00,
2013-02-19 00:55:00,42.1,34.4,29.37,SE,135,4.7,4.7,74,0.00,,,0.00,WUHU216HW,2013-02-19 05:55:00,
2013-02-19 01:00:00,42.1,34.7,29.36,WSW,248,2.7,4.7,75,0.00,,,0.00,WUHU216HW,2013-02-19 06:00:00,
2013-02-19 01:05:00,41.9,35.2,29.36,South,180,8.1,8.1,77,0.00,,,0.00,WUHU216HW,2013-02-19 06:05:00,
2013-02-19 01:10:00,41.8,35.4,29.36,SSE,158,6.3,8.3,78,0.00,,,0.00,WUHU216HW,2013-02-19 06:10:00,
2013-02-19 01:15:00,41.9,36.2,29.35,SSW,203,3.8,9.2,80,0.00,,,0.00,WUHU216HW,2013-02-19 06:15:00,
2013-02-19 01:20:00,41.8,35.6,29.35,SSW,203,5.1,9.2,79,0.00,,,0.00,WUHU216HW,2013-02-19 06:20:00,
2013-02-19 01:25:00,41.8,36.3,29.34,South,180,5.8,6.9,81,0.00,,,0.00,WUHU216HW,2013-02-19 06:25:00,
2013-02-19 01:30:00,41.8,36.3,29.33,SE,135,4.7,6.7,81,0.00,,,0.00,WUHU216HW,2013-02-19 06:30:00,
2013-02-19 01:35:00,41.8,36.6,29.33,SW,225,4.0,7.2,82,0.00,,,0.00,WUHU216HW,2013-02-19 06:35:00,
2013-02-19 01:40:00,41.8,36.9,29.33,SSW,203,6.0,7.2,83,0.00,,,0.00,WUHU216HW,2013-02-19 06:40:00,
2013-02-19 01:45:00,41.8,36.9,29.32,SE,135,3.8,7.2,83,0.00,,,0.00,WUHU216HW,2013-02-19 06:45:00,
2013-02-19 01:50:00,41.8,37.3,29.32,SE,135,3.1,6.9,84,0.00,,,0.00,WUHU216HW,2013-02-19 06:50:00,
2013-02-19 01:55:00,41.8,37.3,29.32,South,180,4.0,6.9,84,0.00,,,0.00,WUHU216HW,2013-02-19 06:55:00,
2013-02-19 02:00:00,41.8,37.5,29.31,South,180,4.9,6.3,85,0.00,,,0.00,WUHU216HW,2013-02-19 07:00:00,
2013-02-19 02:05:00,41.9,37.7,29.31,SSE,158,5.6,9.2,85,0.00,,,0.00,WUHU216HW,2013-02-19 07:05:00,
2013-02-19 02:10:00,41.8,37.8,29.31,SSE,158,8.5,9.2,86,0.00,,,0.00,WUHU216HW,2013-02-19 07:10:00,
2013-02-19 02:15:00,41.9,37.7,29.30,SW,225,6.5,8.5,85,0.00,,,0.00,WUHU216HW,2013-02-19 07:15:00,
2013-02-19 02:20:00,41.9,37.7,29.30,South,180,5.4,8.5,85,0.00,,,0.00,WUHU216HW,2013-02-19 07:20:00,
2013-02-19 02:25:00,41.8,37.5,29.30,SE,135,6.7,6.7,85,0.00,,,0.00,WUHU216HW,2013-02-19 07:25:00,
2013-02-19 02:30:00,41.6,37.4,29.29,SSE,158,4.7,6.7,85,0.00,,,0.00,WUHU216HW,2013-02-19 07:30:00,
2013-02-19 02:35:00,41.4,37.4,29.29,South,180,6.3,7.6,86,0.00,,,0.00,WUHU216HW,2013-02-19 07:35:00,
2013-02-19 02:40:00,41.4,37.4,29.29,SSE,158,4.7,7.6,86,0.00,,,0.00,WUHU216HW,2013-02-19 07:40:00,
2013-02-19 02:45:00,41.4,37.4,29.28,ESE,113,6.3,8.1,86,0.00,,,0.00,WUHU216HW,2013-02-19 07:45:00,
2013-02-19 02:50:00,41.4,37.8,29.28,SSE,158,2.5,10.7,87,0.00,,,0.00,WUHU216HW,2013-02-19 07:50:00,
2013-02-19 02:55:00,41.2,37.6,29.28,South,180,5.4,10.7,87,0.00,,,0.00,WUHU216HW,2013-02-19 07:55:00,
2013-02-19 03:00:00,41.2,37.6,29.27,SSE,158,5.4,9.6,87,0.00,,,0.00,WUHU216HW,2013-02-19 08:00:00,
2013-02-19 03:05:00,41.2,37.6,29.27,SSE,158,4.7,12.5,87,0.00,,,0.00,WUHU216HW,2013-02-19 08:05:00,
2013-02-19 03:10:00,41.0,37.5,29.26,South,180,4.7,12.5,87,0.00,,,0.00,WUHU216HW,2013-02-19 08:10:00,
2013-02-19 03:15:00,41.0,37.5,29.25,SSE,158,5.6,7.6,87,0.00,,,0.00,WUHU216HW,2013-02-19 08:15:00,
2013-02-19 03:20:00,41.0,37.7,29.25,SSE,158,5.6,7.6,88,0.00,,,0.00,WUHU216HW,2013-02-19 08:20:00,
2013-02-19 03:25:00,40.9,37.5,29.25,South,180,11.9,11.9,88,0.00,,,0.00,WUHU216HW,2013-02-19 08:25:00,
2013-02-19 03:30:00,40.9,37.5,29.24,South,180,7.8,11.9,88,0.00,,,0.00,WUHU216HW,2013-02-19 08:30:00,
2013-02-19 03:35:00,40.9,37.3,29.24,SSE,158,5.8,11.9,87,0.00,,,0.00,WUHU216HW,2013-02-19 08:35:00,
2013-02-19 03:40:00,40.9,37.3,29.23,WSW,248,3.6,10.1,87,0.00,,,0.00,WUHU216HW,2013-02-19 08:40:00,
2013-02-19 03:45:00,40.9,37.5,29.23,SSW,203,3.6,7.2,88,0.00,,,0.00,WUHU216HW,2013-02-19 08:45:00,
2013-02-19 03:50:00,40.7,37.4,29.23,SSW,203,5.4,7.2,88,0.00,,,0.00,WUHU216HW,2013-02-19 08:50:00,
2013-02-19 03:55:00,40.7,37.4,29.22,SSE,158,1.6,6.3,88,0.00,,,0.00,WUHU216HW,2013-02-19 08:55:00,
2013-02-19 04:00:00,40.7,37.7,29.22,SSW,203,6.9,6.9,89,0.00,,,0.00,WUHU216HW,2013-02-19 09:00:00,
2013-02-19 04:05:00,40.7,37.4,29.22,SSW,203,9.2,9.2,88,0.00,,,0.00,WUHU216HW,2013-02-19 09:05:00,
2013-02-19 04:10:00,40.7,37.7,29.21,SE,135,5.6,9.2,89,0.00,,,0.00,WUHU216HW,2013-02-19 09:10:00,
2013-02-19 04:15:00,40.9,37.9,29.21,SSE,158,5.8,9.2,89,0.00,,,0.00,WUHU216HW,2013-02-19 09:15:00,
2013-02-19 04:20:00,40.9,37.9,29.21,SSE,158,8.1,8.1,89,0.01,,,0.01,WUHU216HW,2013-02-19 09:20:00,
2013-02-19 04:25:00,40.9,37.9,29.21,SSE,158,6.3,8.1,89,0.01,,,0.01,WUHU216HW,2013-02-19 09:25:00,
2013-02-19 04:30:00,40.9,37.9,29.21,SSE,158,8.5,8.5,89,0.01,,,0.01,WUHU216HW,2013-02-19 09:30:00,
2013-02-19 04:35:00,41.0,38.3,29.21,SW,225,5.4,12.5,90,0.01,,,0.01,WUHU216HW,2013-02-19 09:35:00,
2013-02-19 04:40:00,41.0,38.3,29.20,South,180,3.8,12.5,90,0.01,,,0.01,WUHU216HW,2013-02-19 09:40:00,
2013-02-19 04:45:00,41.0,38.3,29.21,SW,225,3.8,10.5,90,0.01,,,0.01,WUHU216HW,2013-02-19 09:45:00,
2013-02-19 04:50:00,41.0,38.1,29.21,SSW,203,3.8,10.5,89,0.01,,,0.01,WUHU216HW,2013-02-19 09:50:00,
2013-02-19 04:55:00,41.0,38.1,29.21,South,180,4.7,10.5,89,0.01,,,0.01,WUHU216HW,2013-02-19 09:55:00,
2013-02-19 05:00:00,41.0,38.3,29.21,SSW,203,5.4,6.9,90,0.01,,,0.01,WUHU216HW,2013-02-19 10:00:00,
2013-02-19 05:05:00,41.0,38.3,29.21,SW,225,15.0,15.0,90,0.01,,,0.01,WUHU216HW,2013-02-19 10:05:00,
2013-02-19 05:10:00,41.0,38.3,29.22,WSW,248,16.3,16.3,90,0.01,,,0.01,WUHU216HW,2013-02-19 10:10:00,
2013-02-19 05:15:00,40.7,37.7,29.23,WSW,248,10.5,16.3,89,0.01,,,0.01,WUHU216HW,2013-02-19 10:15:00,
2013-02-19 05:20:00,39.1,35.5,29.23,West,270,9.2,16.3,87,0.00,,,0.01,WUHU216HW,2013-02-19 10:20:00,
2013-02-19 05:25:00,38.3,34.7,29.24,West,270,10.5,15.0,87,0.00,,,0.01,WUHU216HW,2013-02-19 10:25:00,
2013-02-19 05:30:00,38.0,34.8,29.25,West,270,5.1,13.4,88,0.00,,,0.01,WUHU216HW,2013-02-19 10:30:00,
2013-02-19 05:35:00,37.8,34.6,29.25,WSW,248,7.6,10.5,88,0.00,,,0.01,WUHU216HW,2013-02-19 10:35:00,
2013-02-19 05:40:00,37.3,33.7,29.25,WSW,248,5.1,11.6,87,0.00,,,0.01,WUHU216HW,2013-02-19 10:40:00,
2013-02-19 05:45:00,37.1,33.5,29.26,West,270,15.9,15.9,87,0.00,,,0.01,WUHU216HW,2013-02-19 10:45:00,
2013-02-19 05:50:00,36.7,33.1,29.26,WSW,248,7.4,15.9,87,0.00,,,0.01,WUHU216HW,2013-02-19 10:50:00,
2013-02-19 05:55:00,36.4,32.8,29.26,West,270,11.4,15.9,87,0.00,,,0.01,WUHU216HW,2013-02-19 10:55:00,
2013-02-19 06:00:00,36.2,32.6,29.26,West,270,3.8,13.2,87,0.00,,,0.01,WUHU216HW,2013-02-19 11:00:00,
2013-02-19 06:05:00,36.0,32.4,29.26,WSW,248,8.3,11.4,87,0.00,,,0.01,WUHU216HW,2013-02-19 11:05:00,
2013-02-19 06:10:00,35.8,32.2,29.26,WNW,293,7.4,9.6,87,0.00,,,0.01,WUHU216HW,2013-02-19 11:10:00,
2013-02-19 06:15:00,35.6,31.8,29.27,WSW,248,9.2,9.6,86,0.00,,,0.01,WUHU216HW,2013-02-19 11:15:00,
2013-02-19 06:20:00,35.6,31.8,29.27,West,270,13.2,13.2,86,0.00,,,0.01,WUHU216HW,2013-02-19 11:20:00,
2013-02-19 06:25:00,35.6,31.8,29.28,WSW,248,14.3,14.3,86,0.00,,,0.01,WUHU216HW,2013-02-19 11:25:00,
2013-02-19 06:30:00,35.6,31.8,29.28,SW,225,2.5,14.3,86,0.00,,,0.01,WUHU216HW,2013-02-19 11:30:00,
2013-02-19 06:35:00,35.5,31.6,29.29,SW,225,4.7,14.3,86,0.00,,,0.01,WUHU216HW,2013-02-19 11:35:00,
2013-02-19 06:40:00,35.5,31.6,29.29,SW,225,4.0,7.8,86,0.00,,,0.01,WUHU216HW,2013-02-19 11:40:00,
2013-02-19 06:45:00,35.5,31.6,29.29,West,270,2.5,7.2,86,0.00,,,0.01,WUHU216HW,2013-02-19 11:45:00,
2013-02-19 06:50:00,35.3,31.4,29.30,SW,225,5.4,5.4,86,0.00,,,0.01,WUHU216HW,2013-02-19 11:50:00,
2013-02-19 06:55:00,35.3,31.7,29.30,WSW,248,5.1,9.6,87,0.00,,,0.01,WUHU216HW,2013-02-19 11:55:00,
2013-02-19 07:00:00,35.1,31.2,29.30,West,270,5.4,10.3,86,0.00,,,0.01,WUHU216HW,2013-02-19 12:00:00,
2013-02-19 07:05:00,34.9,31.1,29.30,West,270,4.0,10.3,86,0.00,,,0.01,WUHU216HW,2013-02-19 12:05:00,
2013-02-19 07:10:00,34.7,30.9,29.30,WNW,293,8.5,9.8,86,0.00,,,0.01,WUHU216HW,2013-02-19 12:10:00,
2013-02-19 07:15:00,34.6,30.7,29.31,WNW,293,9.4,9.4,86,0.00,,,0.01,WUHU216HW,2013-02-19 12:15:00,
2013-02-19 07:20:00,34.4,30.5,29.31,WSW,248,8.1,9.4,86,0.00,,,0.01,WUHU216HW,2013-02-19 12:20:00,
2013-02-19 07:25:00,34.0,30.2,29.31,West,270,7.2,12.8,86,0.00,,,0.01,WUHU216HW,2013-02-19 12:25:00,
2013-02-19 07:30:00,33.8,30.0,29.32,WSW,248,9.4,12.8,86,0.00,,,0.01,WUHU216HW,2013-02-19 12:30:00,
2013-02-19 07:35:00,33.5,29.7,29.32,WNW,293,5.4,9.6,86,0.00,,,0.01,WUHU216HW,2013-02-19 12:35:00,
2013-02-19 07:40:00,33.5,29.7,29.32,SW,225,5.8,13.4,86,0.00,,,0.01,WUHU216HW,2013-02-19 12:40:00,
2013-02-19 07:45:00,33.5,29.7,29.32,WSW,248,9.4,13.4,86,0.00,,,0.01,WUHU216HW,2013-02-19 12:45:00,
2013-02-19 07:50:00,33.5,29.7,29.32,West,270,8.5,10.1,86,0.00,,,0.01,WUHU216HW,2013-02-19 12:50:00,
2013-02-19 07:55:00,33.3,29.5,29.32,WSW,248,6.9,10.1,86,0.00,,,0.01,WUHU216HW,2013-02-19 12:55:00,
2013-02-19 08:00:00,33.3,29.5,29.32,SW,225,9.2,10.5,86,0.00,,,0.01,WUHU216HW,2013-02-19 13:00:00,
2013-02-19 08:05:00,33.1,29.3,29.33,WSW,248,5.1,12.3,86,0.00,,,0.01,WUHU216HW,2013-02-19 13:05:00,
2013-02-19 08:10:00,32.9,29.2,29.33,WSW,248,4.7,12.3,86,0.00,,,0.01,WUHU216HW,2013-02-19 13:10:00,
2013-02-19 08:15:00,32.8,28.7,29.33,WNW,293,16.1,16.1,85,0.00,,,0.01,WUHU216HW,2013-02-19 13:15:00,
2013-02-19 08:20:00,32.8,28.4,29.33,SW,225,6.3,16.1,84,0.00,,,0.01,WUHU216HW,2013-02-19 13:20:00,
2013-02-19 08:25:00,32.6,28.3,29.34,West,270,9.8,16.1,84,0.00,,,0.01,WUHU216HW,2013-02-19 13:25:00,
2013-02-19 08:30:00,32.2,28.0,29.34,West,270,8.1,9.8,84,0.00,,,0.01,WUHU216HW,2013-02-19 13:30:00,
2013-02-19 08:35:00,32.0,27.8,29.34,WSW,248,7.2,12.1,84,0.00,,,0.01,WUHU216HW,2013-02-19 13:35:00,
2013-02-19 08:40:00,31.7,27.5,29.34,WSW,248,8.7,13.9,84,0.00,,,0.01,WUHU216HW,2013-02-19 13:40:00,
2013-02-19 08:45:00,31.5,27.3,29.35,West,270,16.1,16.1,84,0.00,,,0.01,WUHU216HW,2013-02-19 13:45:00,
2013-02-19 08:50:00,31.3,27.1,29.35,West,270,5.4,16.1,84,0.00,,,0.01,WUHU216HW,2013-02-19 13:50:00,
2013-02-19 08:55:00,30.8,26.8,29.35,SW,225,10.5,16.1,85,0.00,,,0.01,WUHU216HW,2013-02-19 13:55:00,
2013-02-19 09:00:00,30.8,26.8,29.35,West,270,12.1,12.1,85,0.00,,,0.01,WUHU216HW,2013-02-19 14:00:00,
2013-02-19 09:05:00,30.6,26.6,29.36,WSW,248,15.7,15.7,85,0.00,,,0.01,WUHU216HW,2013-02-19 14:05:00,
2013-02-19 09:10:00,30.4,26.5,29.36,West,270,13.4,15.7,85,0.00,,,0.01,WUHU216HW,2013-02-19 14:10:00,
2013-02-19 09:15:00,30.1,26.1,29.36,West,270,10.1,15.7,85,0.00,,,0.01,WUHU216HW,2013-02-19 14:15:00,
2013-02-19 09:20:00,29.9,25.7,29.36,SW,225,9.8,14.1,84,0.00,,,0.01,WUHU216HW,2013-02-19 14:20:00,
2013-02-19 09:25:00,29.9,25.7,29.37,WSW,248,9.8,14.1,84,0.00,,,0.01,WUHU216HW,2013-02-19 14:25:00,
2013-02-19 09:30:00,29.9,25.7,29.37,WSW,248,8.5,15.2,84,0.00,,,0.01,WUHU216HW,2013-02-19 14:30:00,
2013-02-19 09:35:00,29.9,25.7,29.37,WSW,248,11.2,15.2,84,0.00,,,0.01,WUHU216HW,2013-02-19 14:35:00,
2013-02-19 09:40:00,29.7,25.5,29.37,WSW,248,9.2,12.1,84,0.00,,,0.01,WUHU216HW,2013-02-19 14:40:00,
2013-02-19 09:45:00,29.5,25.0,29.38,West,270,10.1,12.8,83,0.00,,,0.01,WUHU216HW,2013-02-19 14:45:00,
2013-02-19 09:50:00,29.3,24.9,29.38,West,270,8.7,12.8,83,0.00,,,0.01,WUHU216HW,2013-02-19 14:50:00,
2013-02-19 09:55:00,29.3,24.9,29.38,West,270,13.0,13.0,83,0.00,,,0.01,WUHU216HW,2013-02-19 14:55:00,
2013-02-19 10:00:00,29.2,24.7,29.38,SW,225,8.7,14.5,83,0.00,,,0.01,WUHU216HW,2013-02-19 15:00:00,
2013-02-19 10:05:00,29.2,24.7,29.38,WSW,248,7.6,14.5,83,0.00,,,0.01,WUHU216HW,2013-02-19 15:05:00,
2013-02-19 10:10:00,29.0,24.8,29.38,WSW,248,9.2,12.3,84,0.00,,,0.01,WUHU216HW,2013-02-19 15:10:00,
2013-02-19 10:15:00,28.6,24.4,29.39,SW,225,7.8,13.0,84,0.00,,,0.01,WUHU216HW,2013-02-19 15:15:00,
2013-02-19 10:20:00,28.4,24.0,29.39,WSW,248,7.4,14.5,83,0.00,,,0.01,WUHU216HW,2013-02-19 15:20:00,
2013-02-19 10:25:00,27.7,23.2,29.39,SW,225,7.2,14.5,83,0.00,,,0.01,WUHU216HW,2013-02-19 15:25:00,
2013-02-19 10:30:00,27.7,22.9,29.39,SW,225,5.8,10.5,82,0.00,,,0.01,WUHU216HW,2013-02-19 15:30:00,
2013-02-19 10:35:00,27.9,22.8,29.39,West,270,6.9,9.8,81,0.00,,,0.01,WUHU216HW,2013-02-19 15:35:00,
2013-02-19 10:40:00,28.4,22.8,29.39,WSW,248,9.8,15.0,79,0.00,,,0.01,WUHU216HW,2013-02-19 15:40:00,
2013-02-19 10:45:00,28.8,22.5,29.39,SW,225,10.5,15.0,77,0.00,,,0.01,WUHU216HW,2013-02-19 15:45:00,
2013-02-19 10:50:00,28.8,22.5,29.39,West,270,10.7,13.6,77,0.00,,,0.01,WUHU216HW,2013-02-19 15:50:00,
2013-02-19 10:55:00,28.6,22.0,29.40,SSW,203,8.5,13.0,76,0.00,,,0.01,WUHU216HW,2013-02-19 15:55:00,
2013-02-19 11:00:00,28.1,21.8,29.40,West,270,4.7,13.9,77,0.00,,,0.01,WUHU216HW,2013-02-19 16:00:00,
2013-02-19 11:05:00,27.9,21.6,29.40,West,270,6.5,13.9,77,0.00,,,0.01,WUHU216HW,2013-02-19 16:05:00,
2013-02-19 11:10:00,28.3,21.3,29.40,South,180,9.8,15.2,75,0.00,,,0.01,WUHU216HW,2013-02-19 16:10:00,
2013-02-19 11:15:00,28.8,22.1,29.40,WSW,248,7.6,15.2,76,0.00,,,0.01,WUHU216HW,2013-02-19 16:15:00,
2013-02-19 11:20:00,29.0,22.3,29.40,SW,225,9.4,12.5,76,0.00,,,0.01,WUHU216HW,2013-02-19 16:20:00,
2013-02-19 11:25:00,29.2,22.2,29.40,SW,225,9.2,11.0,75,0.00,,,0.01,WUHU216HW,2013-02-19 16:25:00,
2013-02-19 11:30:00,28.8,21.3,29.40,WSW,248,12.1,13.2,73,0.00,,,0.01,WUHU216HW,2013-02-19 16:30:00,
2013-02-19 11:35:00,28.1,20.9,29.41,West,270,9.2,15.2,74,0.00,,,0.01,WUHU216HW,2013-02-19 16:35:00,
2013-02-19 11:40:00,27.4,19.8,29.41,West,270,13.4,15.2,73,0.00,,,0.01,WUHU216HW,2013-02-19 16:40:00,
2013-02-19 11:45:00,27.0,20.1,29.41,West,270,8.5,16.6,75,0.00,,,0.01,WUHU216HW,2013-02-19 16:45:00,
2013-02-19 11:50:00,26.6,19.1,29.42,WNW,293,9.2,18.6,73,0.00,,,0.01,WUHU216HW,2013-02-19 16:50:00,
2013-02-19 11:55:00,26.8,18.6,29.42,SW,225,12.3,18.6,71,0.00,,,0.01,WUHU216HW,2013-02-19 16:55:00,
2013-02-19 12:00:00,27.0,18.8,29.42,WSW,248,9.2,18.1,71,0.00,,,0.01,WUHU216HW,2013-02-19 17:00:00,
2013-02-19 12:05:00,27.4,18.9,29.42,SW,225,8.9,18.1,70,0.00,,,0.01,WUHU216HW,2013-02-19 17:05:00,
2013-02-19 12:10:00,27.9,19.4,29.42,WSW,248,13.2,13.2,70,0.00,,,0.01,WUHU216HW,2013-02-19 17:10:00,
2013-02-19 12:15:00,28.4,20.0,29.42,SSW,203,10.3,13.2,70,0.00,,,0.01,WUHU216HW,2013-02-19 17:15:00,
2013-02-19 12:20:00,28.6,20.2,29.41,WSW,248,5.1,13.2,70,0.00,,,0.01,WUHU216HW,2013-02-19 17:20:00,
2013-02-19 12:25:00,28.8,20.6,29.42,WNW,293,14.3,14.3,71,0.00,,,0.01,WUHU216HW,2013-02-19 17:25:00,
2013-02-19 12:30:00,28.4,20.0,29.42,WSW,248,7.2,16.6,70,0.00,,,0.01,WUHU216HW,2013-02-19 17:30:00,
2013-02-19 12:35:00,27.0,19.2,29.42,SW,225,12.3,17.0,72,0.00,,,0.01,WUHU216HW,2013-02-19 17:35:00,
2013-02-19 12:40:00,26.5,18.6,29.42,WSW,248,11.0,17.0,72,0.00,,,0.01,WUHU216HW,2013-02-19 17:40:00,
2013-02-19 12:45:00,25.7,18.5,29.42,SSW,203,5.4,18.6,74,0.00,,,0.01,WUHU216HW,2013-02-19 17:45:00,
2013-02-19 12:50:00,25.6,18.7,29.43,West,270,13.9,18.6,75,0.00,,,0.01,WUHU216HW,2013-02-19 17:50:00,
2013-02-19 12:55:00,25.6,19.0,29.43,WSW,248,11.2,13.9,76,0.00,,,0.01,WUHU216HW,2013-02-19 17:55:00,
2013-02-19 13:00:00,25.7,19.2,29.43,WSW,248,10.5,13.9,76,0.00,,,0.01,WUHU216HW,2013-02-19 18:00:00,
2013-02-19 13:05:00,25.6,19.0,29.43,West,270,7.8,12.1,76,0.00,,,0.01,WUHU216HW,2013-02-19 18:05:00,
2013-02-19 13:10:00,25.2,18.6,29.43,WSW,248,11.2,11.9,76,0.00,,,0.01,WUHU216HW,2013-02-19 18:10:00,
2013-02-19 13:15:00,25.2,18.6,29.43,WSW,248,4.5,13.9,76,0.00,,,0.01,WUHU216HW,2013-02-19 18:15:00,
2013-02-19 13:20:00,25.2,18.4,29.44,WSW,248,5.6,17.9,75,0.00,,,0.01,WUHU216HW,2013-02-19 18:20:00,
2013-02-19 13:25:00,25.2,18.4,29.44,SSW,203,9.2,17.9,75,0.00,,,0.01,WUHU216HW,2013-02-19 18:25:00,
2013-02-19 13:30:00,25.7,18.8,29.44,West,270,11.0,16.3,75,0.00,,,0.01,WUHU216HW,2013-02-19 18:30:00,
2013-02-19 13:35:00,26.3,18.7,29.44,West,270,9.8,16.3,73,0.00,,,0.01,WUHU216HW,2013-02-19 18:35:00,
2013-02-19 13:40:00,26.6,19.5,29.44,WSW,248,6.9,14.1,74,0.00,,,0.01,WUHU216HW,2013-02-19 18:40:00,
2013-02-19 13:45:00,26.6,19.1,29.44,WSW,248,14.3,14.3,73,0.00,,,0.01,WUHU216HW,2013-02-19 18:45:00,
2013-02-19 13:50:00,26.5,18.9,29.44,WNW,293,8.5,14.3,73,0.00,,,0.01,WUHU216HW,2013-02-19 18:50:00,
2013-02-19 13:55:00,26.3,18.7,29.44,West,270,11.4,14.3,73,0.00,,,0.01,WUHU216HW,2013-02-19 18:55:00,
2013-02-19 14:00:00,26.1,18.5,29.44,WSW,248,9.8,14.8,73,0.00,,,0.01,WUHU216HW,2013-02-19 19:00:00,
2013-02-19 14:05:00,26.3,18.5,29.44,West,270,9.6,18.3,72,0.00,,,0.01,WUHU216HW,2013-02-19 19:05:00,
2013-02-19 14:10:00,26.6,18.8,29.44,West,270,9.8,18.3,72,0.00,,,0.01,WUHU216HW,2013-02-19 19:10:00,
2013-02-19 14:15:00,26.8,19.0,29.44,West,270,6.9,15.2,72,0.00,,,0.01,WUHU216HW,2013-02-19 19:15:00,
2013-02-19 14:20:00,27.2,19.6,29.44,West,270,5.6,15.2,73,0.00,,,0.01,WUHU216HW,2013-02-19 19:20:00,
2013-02-19 14:25:00,27.5,20.0,29.44,WNW,293,7.4,9.4,73,0.00,,,0.01,WUHU216HW,2013-02-19 19:25:00,
2013-02-19 14:30:00,27.2,19.4,29.44,WSW,248,6.9,14.3,72,0.00,,,0.01,WUHU216HW,2013-02-19 19:30:00,
2013-02-19 14:35:00,27.0,19.2,29.45,WSW,248,6.3,14.3,72,0.00,,,0.01,WUHU216HW,2013-02-19 19:35:00,
2013-02-19 14:40:00,27.0,19.2,29.45,WSW,248,8.3,12.8,72,0.00,,,0.01,WUHU216HW,2013-02-19 19:40:00,
2013-02-19 14:45:00,26.8,19.0,29.45,West,270,8.9,12.8,72,0.00,,,0.01,WUHU216HW,2013-02-19 19:45:00,
2013-02-19 14:50:00,27.0,19.2,29.46,WSW,248,5.4,10.7,72,0.00,,,0.01,WUHU216HW,2013-02-19 19:50:00,
2013-02-19 14:55:00,26.6,18.8,29.46,SSW,203,9.2,17.0,72,0.00,,,0.01,WUHU216HW,2013-02-19 19:55:00,
2013-02-19 15:00:00,26.3,18.5,29.46,WSW,248,13.0,17.0,72,0.00,,,0.01,WUHU216HW,2013-02-19 20:00:00,
2013-02-19 15:05:00,25.7,18.3,29.47,WSW,248,12.1,13.0,73,0.00,,,0.01,WUHU216HW,2013-02-19 20:05:00,
2013-02-19 15:10:00,25.4,18.2,29.47,West,270,8.3,13.0,74,0.00,,,0.01,WUHU216HW,2013-02-19 20:10:00,
2013-02-19 15:15:00,25.2,18.0,29.47,WSW,248,11.0,12.8,74,0.00,,,0.01,WUHU216HW,2013-02-19 20:15:00,
2013-02-19 15:20:00,24.7,17.8,29.47,SW,225,7.2,12.8,75,0.00,,,0.01,WUHU216HW,2013-02-19 20:20:00,
2013-02-19 15:25:00,24.5,17.6,29.48,WSW,248,6.3,11.6,75,0.00,,,0.01,WUHU216HW,2013-02-19 20:25:00,
2013-02-19 15:30:00,24.7,17.8,29.48,WSW,248,5.4,11.6,75,0.00,,,0.01,WUHU216HW,2013-02-19 20:30:00,
2013-02-19 15:35:00,24.7,17.8,29.48,SW,225,10.7,14.1,75,0.00,,,0.01,WUHU216HW,2013-02-19 20:35:00,
2013-02-19 15:40:00,24.7,17.6,29.48,West,270,7.4,14.3,74,0.00,,,0.01,WUHU216HW,2013-02-19 20:40:00,
2013-02-19 15:45:00,24.7,17.2,29.49,West,270,7.6,14.3,73,0.00,,,0.01,WUHU216HW,2013-02-19 20:45:00,
2013-02-19 15:50:00,24.8,17.0,29.49,WSW,248,10.7,20.1,72,0.00,,,0.01,WUHU216HW,2013-02-19 20:50:00,
2013-02-19 15:55:00,24.8,16.8,29.49,West,270,14.3,20.1,71,0.00,,,0.01,WUHU216HW,2013-02-19 20:55:00,
2013-02-19 16:00:00,24.5,16.0,29.49,West,270,9.6,15.0,70,0.00,,,0.01,WUHU216HW,2013-02-19 21:00:00,
2013-02-19 16:05:00,24.5,16.0,29.49,West,270,10.5,16.3,70,0.00,,,0.01,WUHU216HW,2013-02-19 21:05:00,
2013-02-19 16:10:00,24.5,16.0,29.50,West,270,15.2,16.3,70,0.00,,,0.01,WUHU216HW,2013-02-19 21:10:00,
2013-02-19 16:15:00,24.1,15.8,29.50,West,270,11.9,15.2,70,0.00,,,0.01,WUHU216HW,2013-02-19 21:15:00,
2013-02-19 16:20:00,24.1,15.8,29.51,SW,225,15.0,16.8,70,0.00,,,0.01,WUHU216HW,2013-02-19 21:20:00,
2013-02-19 16:25:00,24.1,15.8,29.51,West,270,14.3,16.8,70,0.00,,,0.01,WUHU216HW,2013-02-19 21:25:00,
2013-02-19 16:30:00,24.1,15.8,29.51,West,270,11.4,15.0,70,0.00,,,0.01,WUHU216HW,2013-02-19 21:30:00,
2013-02-19 16:35:00,23.9,15.9,29.51,WSW,248,12.3,12.3,71,0.00,,,0.01,WUHU216HW,2013-02-19 21:35:00,
2013-02-19 16:40:00,23.6,15.2,29.52,WNW,293,12.1,14.3,70,0.00,,,0.01,WUHU216HW,2013-02-19 21:40:00,
2013-02-19 16:45:00,23.6,15.6,29.52,West,270,9.8,17.4,71,0.00,,,0.01,WUHU216HW,2013-02-19 21:45:00,
2013-02-19 16:50:00,23.4,15.4,29.52,West,270,4.0,17.4,71,0.00,,,0.01,WUHU216HW,2013-02-19 21:50:00,
2013-02-19 16:55:00,23.6,15.8,29.53,WSW,248,9.4,13.4,72,0.00,,,0.01,WUHU216HW,2013-02-19 21:55:00,
2013-02-19 17:00:00,23.6,15.8,29.53,WNW,293,12.5,13.4,72,0.00,,,0.01,WUHU216HW,2013-02-19 22:00:00,
2013-02-19 17:05:00,23.6,15.8,29.53,West,270,14.3,14.3,72,0.00,,,0.01,WUHU216HW,2013-02-19 22:05:00,
2013-02-19 17:10:00,23.4,15.7,29.53,West,270,4.7,14.3,72,0.00,,,0.01,WUHU216HW,2013-02-19 22:10:00,
2013-02-19 17:15:00,23.4,15.7,29.53,WNW,293,3.6,14.3,72,0.00,,,0.01,WUHU216HW,2013-02-19 22:15:00,
2013-02-19 17:20:00,23.2,15.6,29.54,West,270,10.1,19.0,72,0.00,,,0.01,WUHU216HW,2013-02-19 22:20:00,
2013-02-19 17:25:00,23.2,15.6,29.54,WSW,248,11.2,19.0,72,0.00,,,0.01,WUHU216HW,2013-02-19 22:25:00,
2013-02-19 17:30:00,23.0,15.7,29.55,West,270,8.5,12.3,73,0.00,,,0.01,WUHU216HW,2013-02-19 22:30:00,
2013-02-19 17:35:00,22.9,16.1,29.55,WSW,248,7.8,11.4,75,0.00,,,0.01,WUHU216HW,2013-02-19 22:35:00,
2013-02-19 17:40:00,22.7,16.2,29.55,WSW,248,10.1,11.4,76,0.00,,,0.01,WUHU216HW,2013-02-19 22:40:00,
2013-02-19 17:45:00,22.5,16.4,29.56,WSW,248,10.3,11.4,77,0.00,,,0.01,WUHU216HW,2013-02-19 22:45:00,
2013-02-19 17:50:00,22.1,16.0,29.56,WSW,248,6.9,11.4,77,0.00,,,0.01,WUHU216HW,2013-02-19 22:50:00,
2013-02-19 17:55:00,22.0,15.9,29.56,WSW,248,7.6,16.6,77,0.00,,,0.01,WUHU216HW,2013-02-19 22:55:00,
2013-02-19 18:00:00,21.6,15.8,29.56,West,270,5.4,16.6,78,0.00,,,0.01,WUHU216HW,2013-02-19 23:00:00,
2013-02-19 18:05:00,21.4,15.6,29.57,WNW,293,5.1,14.3,78,0.00,,,0.01,WUHU216HW,2013-02-19 23:05:00,
2013-02-19 18:10:00,21.2,15.8,29.57,WSW,248,11.2,14.3,79,0.00,,,0.01,WUHU216HW,2013-02-19 23:10:00,
2013-02-19 18:15:00,21.1,15.8,29.57,WSW,248,6.0,14.1,80,0.00,,,0.01,WUHU216HW,2013-02-19 23:15:00,
2013-02-19 18:20:00,20.7,15.8,29.58,West,270,8.3,11.4,81,0.00,,,0.01,WUHU216HW,2013-02-19 23:20:00,
2013-02-19 18:25:00,20.7,15.8,29.58,WSW,248,8.5,11.9,81,0.00,,,0.01,WUHU216HW,2013-02-19 23:25:00,
2013-02-19 18:30:00,20.5,15.6,29.59,WSW,248,13.4,13.4,81,0.00,,,0.01,WUHU216HW,2013-02-19 23:30:00,
2013-02-19 18:35:00,20.5,15.8,29.59,West,270,10.5,13.4,82,0.00,,,0.01,WUHU216HW,2013-02-19 23:35:00,
2013-02-19 18:40:00,20.5,15.8,29.59,West,270,8.1,13.4,82,0.00,,,0.01,WUHU216HW,2013-02-19 23:40:00,
2013-02-19 18:45:00,20.5,15.8,29.59,West,270,6.7,10.7,82,0.00,,,0.01,WUHU216HW,2013-02-19 23:45:00,
2013-02-19 18:50:00,20.5,15.8,29.60,West,270,6.0,10.7,82,0.00,,,0.01,WUHU216HW,2013-02-19 23:50:00,
2013-02-19 18:55:00,20.5,15.8,29.60,West,270,6.9,10.1,82,0.00,,,0.01,WUHU216HW,2013-02-19 23:55:00,
2013-02-19 19:00:00,20.3,15.7,29.61,WSW,248,4.3,10.3,82,0.00,,,0.01,WUHU216HW,2013-02-20 00:00:00,
2013-02-19 19:05:00,20.3,15.7,29.61,WSW,248,4.0,10.3,82,0.00,,,0.01,WUHU216HW,2013-02-20 00:05:00,
2013-02-19 19:10:00,20.3,15.7,29.61,WNW,293,4.9,13.2,82,0.00,,,0.01,WUHU216HW,2013-02-20 00:10:00,
2013-02-19 19:15:00,20.3,15.7,29.61,WSW,248,8.9,13.2,82,0.00,,,0.01,WUHU216HW,2013-02-20 00:15:00,
2013-02-19 19:20:00,20.3,15.7,29.62,WNW,293,6.3,8.9,82,0.00,,,0.01,WUHU216HW,2013-02-20 00:20:00,
2013-02-19 19:25:00,20.2,15.8,29.62,WSW,248,3.6,8.9,83,0.00,,,0.01,WUHU216HW,2013-02-20 00:25:00,
2013-02-19 19:30:00,20.2,15.8,29.62,West,270,6.3,7.6,83,0.00,,,0.01,WUHU216HW,2013-02-20 00:30:00,
2013-02-19 19:35:00,20.0,15.3,29.63,West,270,6.7,6.7,82,0.00,,,0.01,WUHU216HW,2013-02-20 00:35:00,
2013-02-19 19:40:00,19.8,15.4,29.63,WSW,248,7.6,10.5,83,0.00,,,0.01,WUHU216HW,2013-02-20 00:40:00,
2013-02-19 19:45:00,19.8,15.1,29.63,WNW,293,2.7,14.1,82,0.00,,,0.01,WUHU216HW,2013-02-20 00:45:00,
2013-02-19 19:50:00,19.4,14.5,29.63,WSW,248,11.4,14.1,81,0.00,,,0.01,WUHU216HW,2013-02-20 00:50:00,
2013-02-19 19:55:00,19.1,13.9,29.63,WSW,248,7.6,15.2,80,0.00,,,0.01,WUHU216HW,2013-02-20 00:55:00,
2013-02-19 20:00:00,19.1,13.2,29.63,WSW,248,15.4,15.4,78,0.00,,,0.01,WUHU216HW,2013-02-20 01:00:00,
2013-02-19 20:05:00,19.1,13.2,29.64,West,270,5.4,15.4,78,0.00,,,0.01,WUHU216HW,2013-02-20 01:05:00,
2013-02-19 20:10:00,18.7,12.3,29.64,West,270,15.0,15.4,76,0.00,,,0.01,WUHU216HW,2013-02-20 01:10:00,
2013-02-19 20:15:00,18.7,11.7,29.64,NW,315,7.8,15.4,74,0.00,,,0.01,WUHU216HW,2013-02-20 01:15:00,
2013-02-19 20:20:00,18.7,12.0,29.64,NW,315,6.5,15.0,75,0.00,,,0.01,WUHU216HW,2013-02-20 01:20:00,
2013-02-19 20:25:00,18.7,11.7,29.64,West,270,4.3,13.6,74,0.00,,,0.01,WUHU216HW,2013-02-20 01:25:00,
2013-02-19 20:30:00,18.5,11.5,29.64,WNW,293,8.1,13.0,74,0.00,,,0.01,WUHU216HW,2013-02-20 01:30:00,
2013-02-19 20:35:00,18.5,11.5,29.64,West,270,8.5,13.0,74,0.00,,,0.01,WUHU216HW,2013-02-20 01:35:00,
2013-02-19 20:40:00,18.5,11.5,29.65,WSW,248,7.8,13.2,74,0.00,,,0.01,WUHU216HW,2013-02-20 01:40:00,
2013-02-19 20:45:00,18.5,11.5,29.65,West,270,8.5,13.2,74,0.00,,,0.01,WUHU216HW,2013-02-20 01:45:00,
2013-02-19 20:50:00,18.5,11.5,29.65,West,270,9.2,13.6,74,0.00,,,0.01,WUHU216HW,2013-02-20 01:50:00,
2013-02-19 20:55:00,18.5,11.3,29.65,West,270,8.1,13.6,73,0.00,,,0.01,WUHU216HW,2013-02-20 01:55:00,
2013-02-19 21:00:00,18.4,10.4,29.65,WSW,248,11.2,14.8,71,0.00,,,0.01,WUHU216HW,2013-02-20 02:00:00,
2013-02-19 21:05:00,18.4,10.8,29.65,West,270,11.9,19.2,72,0.00,,,0.01,WUHU216HW,2013-02-20 02:05:00,
2013-02-19 21:10:00,18.4,10.8,29.65,West,270,10.1,19.2,72,0.00,,,0.01,WUHU216HW,2013-02-20 02:10:00,
2013-02-19 21:15:00,18.4,10.4,29.65,WSW,248,11.4,19.7,71,0.00,,,0.01,WUHU216HW,2013-02-20 02:15:00,
2013-02-19 21:20:00,18.4,10.8,29.65,WSW,248,9.4,19.7,72,0.00,,,0.01,WUHU216HW,2013-02-20 02:20:00,
2013-02-19 21:25:00,18.4,10.8,29.66,WSW,248,6.7,11.9,72,0.00,,,0.01,WUHU216HW,2013-02-20 02:25:00,
2013-02-19 21:30:00,18.4,10.4,29.66,West,270,15.0,18.6,71,0.00,,,0.01,WUHU216HW,2013-02-20 02:30:00,
2013-02-19 21:35:00,18.4,10.4,29.66,WSW,248,13.9,18.6,71,0.00,,,0.01,WUHU216HW,2013-02-20 02:35:00,
2013-02-19 21:40:00,18.4,10.4,29.66,West,270,10.3,13.9,71,0.00,,,0.01,WUHU216HW,2013-02-20 02:40:00,
2013-02-19 21:45:00,18.4,10.4,29.66,WNW,293,7.8,13.9,71,0.00,,,0.01,WUHU216HW,2013-02-20 02:45:00,
2013-02-19 21:50:00,18.2,10.6,29.66,WSW,248,13.0,13.4,72,0.00,,,0.01,WUHU216HW,2013-02-20 02:50:00,
2013-02-19 21:55:00,18.2,10.6,29.66,West,270,6.9,13.6,72,0.00,,,0.01,WUHU216HW,2013-02-20 02:55:00,
2013-02-19 22:00:00,18.2,10.6,29.66,WSW,248,8.7,13.6,72,0.00,,,0.01,WUHU216HW,2013-02-20 03:00:00,
2013-02-19 22:05:00,18.2,10.9,29.66,WSW,248,8.9,11.2,73,0.00,,,0.01,WUHU216HW,2013-02-20 03:05:00,
2013-02-19 22:10:00,18.2,10.9,29.67,WSW,248,5.1,10.5,73,0.00,,,0.01,WUHU216HW,2013-02-20 03:10:00,
2013-02-19 22:15:00,18.2,11.2,29.67,WSW,248,5.6,10.7,74,0.00,,,0.01,WUHU216HW,2013-02-20 03:15:00,
2013-02-19 22:20:00,18.2,11.2,29.67,WSW,248,3.8,10.7,74,0.00,,,0.01,WUHU216HW,2013-02-20 03:20:00,
2013-02-19 22:25:00,18.2,11.2,29.67,West,270,9.2,13.0,74,0.00,,,0.01,WUHU216HW,2013-02-20 03:25:00,
2013-02-19 22:30:00,18.2,11.2,29.67,WNW,293,6.3,13.0,74,0.00,,,0.01,WUHU216HW,2013-02-20 03:30:00,
2013-02-19 22:35:00,18.2,11.2,29.67,WSW,248,4.7,9.8,74,0.00,,,0.01,WUHU216HW,2013-02-20 03:35:00,
2013-02-19 22:40:00,18.2,11.2,29.67,West,270,6.9,10.3,74,0.00,,,0.01,WUHU216HW,2013-02-20 03:40:00,
2013-02-19 22:45:00,18.2,11.2,29.67,WSW,248,6.5,10.3,74,0.00,,,0.01,WUHU216HW,2013-02-20 03:45:00,
2013-02-19 22:50:00,18.2,11.5,29.67,West,270,6.9,9.8,75,0.00,,,0.01,WUHU216HW,2013-02-20 03:50:00,
2013-02-19 22:55:00,18.2,11.5,29.67,West,270,7.8,10.5,75,0.00,,,0.01,WUHU216HW,2013-02-20 03:55:00,
2013-02-19 23:00:00,18.2,11.5,29.68,West,270,5.8,11.6,75,0.00,,,0.01,WUHU216HW,2013-02-20 04:00:00,
2013-02-19 23:05:00,18.2,11.8,29.67,West,270,4.0,13.4,76,0.00,,,0.01,WUHU216HW,2013-02-20 04:05:00,
2013-02-19 23:10:00,18.2,11.8,29.68,WSW,248,6.3,13.4,76,0.00,,,0.01,WUHU216HW,2013-02-20 04:10:00,
2013-02-19 23:15:00,18.2,11.8,29.68,West,270,6.3,12.1,76,0.00,,,0.01,WUHU216HW,2013-02-20 04:15:00,
2013-02-19 23:20:00,18.2,11.5,29.68,WSW,248,8.3,12.1,75,0.00,,,0.01,WUHU216HW,2013-02-20 04:20:00,
2013-02-19 23:25:00,18.2,11.2,29.68,NNW,338,4.0,12.8,74,0.00,,,0.01,WUHU216HW,2013-02-20 04:25:00,
2013-02-19 23:30:00,18.2,11.2,29.68,West,270,4.7,12.8,74,0.00,,,0.01,WUHU216HW,2013-02-20 04:30:00,
2013-02-19 23:35:00,18.2,11.5,29.68,West,270,2.7,12.1,75,0.00,,,0.01,WUHU216HW,2013-02-20 04:35:00,
2013-02-19 23:40:00,18.2,11.5,29.68,West,270,10.1,10.1,75,0.00,,,0.01,WUHU216HW,2013-02-20 04:40:00,
2013-02-19 23:45:00,18.2,11.5,29.68,WNW,293,2.5,10.1,75,0.00,,,0.01,WUHU216HW,2013-02-20 04:45:00,
2013-02-19 23:50:00,18.2,11.5,29.68,WSW,248,6.5,10.1,75,0.00,,,0.01,WUHU216HW,2013-02-20 04:50:00,
2013-02-19 23:55:00,18.0,11.1,29.68,West,270,10.3,10.7,74,0.00,,,0.01,WUHU216HW,2013-02-20 04:55:00,